FW0850 Weather Reports


Display with metric or nautical units.
time (UTC)temp
F
wind
direction
speed
MPH
gust
MPH
rain 1hr
in
rain 24hr
in
rain mn
in
humidity
%
barometer
mb
20181213041523 30 122 0.0 0.0 0.00 0.00 0.00 85 1012.6
20181213040054 30 195 0.0 0.0 0.00 0.00 0.00 84 1012.6
20181213034528 30 214 0.0 0.0 0.00 0.00 0.00 84 1012.6
20181213033035 30 178 0.0 0.0 0.00 0.00 0.00 84 1012.4
20181213031528 30 139 0.0 0.0 0.00 0.00 0.00 84 1012.4
20181213030039 30 139 0.0 0.0 0.00 0.00 0.00 84 1012.4
20181213024539 30 181 0.0 0.0 0.00 0.00 0.00 83 1012.3
20181213023027 31 206 0.0 1.0 0.00 0.00 0.00 83 1012.1
20181213021523 31 154 0.0 2.0 0.00 0.00 0.00 83 1012.2
20181213020018 30 212 0.0 0.0 0.00 0.00 0.00 83 1012.4
20181213014512 30 169 0.0 0.0 0.00 0.00 0.00 83 1012.6
20181213013012 30 169 0.0 0.0 0.00 0.00 0.00 83 1012.3
20181213011545 30 169 0.0 0.0 0.00 0.00 0.00 83 1011.9
20181213010022 30 209 0.0 0.0 0.00 0.00 0.00 84 1011.8
20181213004531 30 163 0.0 0.0 0.00 0.00 0.00 84 1011.7
20181213003040 30 163 0.0 1.0 0.00 0.00 0.00 84 1011.5
20181213001524 30 209 0.0 3.0 0.00 0.00 0.00 85 1011.3
20181213000002 30 168 0.0 4.0 0.00 0.00 0.00 85 1011.2
20181212234502 30 179 2.0 3.0 0.00 0.00 0.00 85 1010.9
20181212233002 31 195 1.0 3.0 0.00 0.00 0.00 86 1010.8
20181212231503 31 136 0.0 3.0 0.00 0.00 0.00 86 1010.6
20181212230244 31 149 1.0 3.0 0.00 0.00 0.00 86 1010.6
20181212224615 31 132 2.0 5.0 0.00 0.00 0.00 86 1010.4
20181212223209 31 162 1.0 5.0 0.00 0.00 0.00 86 1010.4
20181212220146 31 104 3.0 5.0 0.00 0.00 0.00 86 1010.0
20181212214615 31 110 1.0 5.0 0.00 0.00 0.00 86 1010.1
20181212213141 31 86 2.0 6.0 0.00 0.00 0.00 86 1009.9
20181212211744 31 93 2.0 6.0 0.00 0.00 0.00 86 1009.8
20181212210146 31 116 2.0 8.0 0.00 0.00 0.00 86 1009.7
20181212204714 31 103 3.0 8.0 0.00 0.00 0.00 86 1009.6
20181212203227 31 95 0.0 5.0 0.00 0.00 0.00 85 1009.3
20181212201651 31 72 2.0 4.0 0.00 0.00 0.00 84 1009.2
20181212200149 31 69 1.0 4.0 0.00 0.00 0.00 84 1009.2
20181212194754 31 117 1.0 4.0 0.00 0.00 0.00 84 1009.3
20181212193202 31 60 3.0 6.0 0.00 0.00 0.00 84 1009.2
20181212191735 31 55 1.0 4.0 0.00 0.00 0.00 83 1009.3
20181212190158 30 60 1.0 4.0 0.00 0.00 0.00 83 1009.3
20181212184625 30 86 1.0 6.0 0.00 0.00 0.00 83 1009.1
20181212183249 30 77 1.0 4.0 0.00 0.00 0.00 82 1009.1
20181212181610 30 31 0.0 4.0 0.00 0.00 0.00 82 1009.3
20181212180052 30 50 0.0 4.0 0.00 0.00 0.00 82 1009.2
20181212174655 30 14 1.0 4.0 0.00 0.00 0.00 82 1009.3
20181212173122 30 60 0.0 2.0 0.00 0.00 0.00 82 1009.6
20181212171548 29 91 0.0 0.0 0.00 0.00 0.00 82 1009.6
20181212170103 29 95 0.0 0.0 0.00 0.00 0.00 82 1009.7
20181212164610 29 165 0.0 0.0 0.00 0.00 0.00 82 1010.0
20181212163131 29 165 0.0 0.0 0.00 0.00 0.00 82 1010.0
20181212161626 29 117 0.0 0.0 0.00 0.00 0.00 83 1010.0
20181212160104 29 116 0.0 1.0 0.00 0.00 0.00 82 1009.9
20181212154615 28 82 0.0 1.0 0.00 0.00 0.00 83 1009.8
20181212153106 28 98 0.0 2.0 0.00 0.00 0.00 83 1010.1
20181212151608 28 82 0.0 4.0 0.00 0.00 0.00 83 1010.0
20181212150108 28 68 1.0 4.0 0.00 0.00 0.00 83 1009.9
20181212144606 28 103 1.0 4.0 0.00 0.00 0.00 83 1009.9
20181212143046 28 53 0.0 3.0 0.00 0.00 0.00 85 1009.9
20181212141642 28 60 1.0 3.0 0.00 0.00 0.00 85 1009.8
20181212140135 28 117 2.0 5.0 0.00 0.00 0.00 84 1009.7
20181212134611 28 77 2.0 6.0 0.00 0.00 0.00 84 1009.7
20181212133029 28 59 1.0 3.0 0.00 0.00 0.00 82 1009.8
20181212131550 28 87 1.0 6.0 0.00 0.00 0.00 82 1009.9
20181212130043 28 55 1.0 4.0 0.00 0.00 0.00 82 1010.0
20181212124603 28 86 1.0 6.0 0.00 0.00 0.00 82 1010.4
20181212123040 28 99 2.0 6.0 0.00 0.00 0.00 82 1010.5
20181212121530 28 79 2.0 5.0 0.00 0.00 0.00 82 1010.5
20181212120106 28 84 1.0 5.0 0.00 0.00 0.00 82 1010.7
20181212114545 28 89 3.0 9.0 0.00 0.00 0.00 83 1010.7
20181212113133 28 113 3.0 6.0 0.00 0.00 0.00 83 1010.5
20181212111536 28 71 3.0 13.0 0.00 0.00 0.00 82 1010.4
20181212110033 28 119 5.0 11.0 0.00 0.00 0.00 83 1010.4
20181212104534 28 102 6.0 11.0 0.00 0.00 0.00 83 1010.5
20181212103020 28 62 6.0 11.0 0.00 0.00 0.00 83 1010.5
20181212101519 28 66 5.0 11.0 0.00 0.00 0.00 83 1010.5
20181212100013 28 93 6.0 11.0 0.00 0.00 0.00 83 1010.4
20181212094514 28 91 3.0 9.0 0.00 0.00 0.00 83 1010.4
20181212093008 28 82 4.0 10.0 0.00 0.00 0.00 85 1010.7
20181212091521 28 88 4.0 10.0 0.00 0.00 0.00 84 1010.8
20181212090003 28 68 4.0 9.0 0.00 0.00 0.00 85 1011.0
20181212084824 28 53 4.0 9.0 0.00 0.00 0.00 85 1011.2
20181212083138 28 77 4.0 11.0 0.00 0.00 0.00 85 1011.1
20181212081625 28 48 3.0 10.0 0.00 0.00 0.00 85 1011.3
20181212080226 28 90 4.0 7.0 0.00 0.00 0.00 86 1012.0
20181212074620 28 46 3.0 7.0 0.00 0.00 0.00 86 1012.1
20181212073112 27 71 3.0 6.0 0.00 0.00 0.00 86 1012.4
20181212071630 27 35 1.0 7.0 0.00 0.00 0.00 86 1012.5
20181212070109 27 91 2.0 6.0 0.00 0.00 0.00 86 1012.7
20181212064659 27 72 2.0 7.0 0.00 0.00 0.00 86 1012.9
20181212063105 27 63 2.0 6.0 0.00 0.00 0.00 86 1013.0
20181212061645 27 70 2.0 5.0 0.00 0.00 0.00 86 1013.4
20181212060145 27 55 3.0 7.0 0.00 0.00 0.00 86 1013.4
20181212054606 27 85 3.0 8.0 0.00 0.00 0.00 87 1013.4
20181212053138 27 48 3.0 7.0 0.00 0.00 0.00 86 1013.7
20181212051609 27 107 3.0 5.0 0.00 0.00 0.00 87 1014.2
20181212050054 27 58 2.0 7.0 0.00 0.00 0.00 86 1014.2
20181212044615 27 50 2.0 7.0 0.00 0.00 0.00 86 1014.3
20181212043133 27 91 2.0 6.0 0.00 0.00 0.00 87 1014.5